Time,TemperatureF,DewpointF,PressureIn,WindDirection,WindDirectionDegrees,WindSpeedMPH,WindSpeedGustMPH,Humidity,HourlyPrecipIn,Conditions,Clouds,dailyrainin,SolarRadiationWatts/m^2,SoftwareType,DateUTC
2013-09-13 00:01:00,81.4,65.2,29.94,East,96,9.0,15.0,58,0.00,,---,0.00,0.00,VWS V14.01,2013-09-13 05:01:00,
2013-09-13 00:06:00,81.2,65.0,29.94,East,90,8.0,11.0,58,0.00,,---,0.00,0.00,VWS V14.01,2013-09-13 05:06:00,
2013-09-13 00:11:00,81.0,65.3,29.94,ESE,108,4.0,11.0,59,0.00,,---,0.00,0.00,VWS V14.01,2013-09-13 05:11:00,
2013-09-13 00:16:00,80.7,65.1,29.94,East,88,6.0,13.0,59,0.00,,---,0.00,0.00,VWS V14.01,2013-09-13 05:16:00,
2013-09-13 00:21:00,80.5,65.3,29.94,ENE,78,2.0,13.0,60,0.00,,---,0.00,0.00,VWS V14.01,2013-09-13 05:21:00,
2013-09-13 00:26:00,80.3,65.2,29.94,East,84,5.0,13.0,60,0.00,,---,0.00,0.00,VWS V14.01,2013-09-13 05:26:00,
2013-09-13 00:31:00,80.0,65.4,29.94,East,101,8.0,13.0,61,0.00,,---,0.00,0.00,VWS V14.01,2013-09-13 05:31:00,
2013-09-13 00:36:00,79.8,65.2,29.94,East,100,6.0,8.0,61,0.00,,---,0.00,0.00,VWS V14.01,2013-09-13 05:36:00,
2013-09-13 00:41:00,79.6,65.0,29.94,ENE,78,4.0,10.0,61,0.00,,---,0.00,0.00,VWS V14.01,2013-09-13 05:41:00,
2013-09-13 00:46:00,79.4,65.3,29.94,ESE,120,4.0,10.0,62,0.00,,---,0.00,0.00,VWS V14.01,2013-09-13 05:46:00,
2013-09-13 00:51:00,79.3,65.2,29.94,East,94,6.0,10.0,62,0.00,,---,0.00,0.00,VWS V14.01,2013-09-13 05:51:00,
2013-09-13 00:56:00,79.1,65.4,29.94,East,94,6.0,10.0,63,0.00,,---,0.00,0.00,VWS V14.01,2013-09-13 05:56:00,
2013-09-13 01:01:00,78.9,65.2,29.94,East,94,5.0,10.0,63,0.00,,---,0.00,0.00,VWS V14.01,2013-09-13 06:01:00,
2013-09-13 01:06:00,78.8,65.2,29.93,East,91,3.0,7.0,63,0.00,,---,0.00,0.00,VWS V14.01,2013-09-13 06:06:00,
2013-09-13 01:11:00,78.6,65.4,29.93,ESE,103,7.0,9.0,64,0.00,,---,0.00,0.00,VWS V14.01,2013-09-13 06:11:00,
2013-09-13 01:16:00,78.5,65.3,29.94,ENE,76,1.0,9.0,64,0.00,,---,0.00,0.00,VWS V14.01,2013-09-13 06:16:00,
2013-09-13 01:21:00,78.3,65.1,29.93,ESE,120,2.0,9.0,64,0.00,,---,0.00,0.00,VWS V14.01,2013-09-13 06:21:00,
2013-09-13 01:26:00,78.2,65.5,29.93,East,85,3.0,9.0,65,0.00,,---,0.00,0.00,VWS V14.01,2013-09-13 06:26:00,
2013-09-13 01:31:00,78.1,65.4,29.93,East,84,3.0,9.0,65,0.00,,---,0.00,0.00,VWS V14.01,2013-09-13 06:31:00,
2013-09-13 01:36:00,77.9,65.2,29.94,ENE,68,3.0,5.0,65,0.00,,---,0.00,0.00,VWS V14.01,2013-09-13 06:36:00,
2013-09-13 01:41:00,77.8,65.5,29.94,ENE,58,3.0,5.0,66,0.00,,---,0.00,0.00,VWS V14.01,2013-09-13 06:41:00,
2013-09-13 01:46:00,77.6,65.3,29.94,NE,42,4.0,6.0,66,0.00,,---,0.00,0.00,VWS V14.01,2013-09-13 06:46:00,
2013-09-13 01:51:00,77.5,65.3,29.94,NE,34,1.0,6.0,66,0.00,,---,0.00,0.00,VWS V14.01,2013-09-13 06:51:00,
2013-09-13 01:56:00,77.4,65.2,29.94,NNE,27,2.0,6.0,66,0.00,,---,0.00,0.00,VWS V14.01,2013-09-13 06:56:00,
2013-09-13 02:01:00,77.3,65.1,29.94,NE,45,3.0,6.0,66,0.00,,---,0.00,0.00,VWS V14.01,2013-09-13 07:01:00,
2013-09-13 02:06:00,77.1,65.3,29.94,NNE,31,3.0,4.0,67,0.00,,---,0.00,0.00,VWS V14.01,2013-09-13 07:06:00,
2013-09-13 02:11:00,77.0,65.2,29.94,NE,45,4.0,4.0,67,0.00,,---,0.00,0.00,VWS V14.01,2013-09-13 07:11:00,
2013-09-13 02:16:00,76.9,65.1,29.94,NE,36,3.0,4.0,67,0.00,,---,0.00,0.00,VWS V14.01,2013-09-13 07:16:00,
2013-09-13 02:21:00,76.8,65.0,29.94,NE,36,2.0,4.0,67,0.00,,---,0.00,0.00,VWS V14.01,2013-09-13 07:21:00,
2013-09-13 02:26:00,76.6,64.8,29.94,NE,36,2.0,4.0,67,0.00,,---,0.00,0.00,VWS V14.01,2013-09-13 07:26:00,
2013-09-13 02:31:00,76.4,65.1,29.94,NNE,26,2.0,4.0,68,0.00,,---,0.00,0.00,VWS V14.01,2013-09-13 07:31:00,
2013-09-13 02:36:00,76.2,64.9,29.94,North,11,3.0,4.0,68,0.00,,---,0.00,0.00,VWS V14.01,2013-09-13 07:36:00,
2013-09-13 02:41:00,76.0,64.7,29.94,NNE,30,2.0,4.0,68,0.00,,---,0.00,0.00,VWS V14.01,2013-09-13 07:41:00,
2013-09-13 02:46:00,75.9,65.0,29.94,NE,50,2.0,4.0,69,0.00,,---,0.00,0.00,VWS V14.01,2013-09-13 07:46:00,
2013-09-13 02:51:00,75.8,64.9,29.94,NE,48,3.0,4.0,69,0.00,,---,0.00,0.00,VWS V14.01,2013-09-13 07:51:00,
2013-09-13 02:56:00,75.7,64.8,29.93,NE,48,3.0,4.0,69,0.00,,---,0.00,0.00,VWS V14.01,2013-09-13 07:56:00,
2013-09-13 03:01:00,75.5,64.6,29.94,NE,55,3.0,4.0,69,0.00,,---,0.00,0.00,VWS V14.01,2013-09-13 08:01:00,
2013-09-13 03:06:00,75.5,65.0,29.93,NE,44,2.0,5.0,70,0.00,,---,0.00,0.00,VWS V14.01,2013-09-13 08:06:00,
2013-09-13 03:11:00,75.4,64.9,29.93,NE,43,4.0,5.0,70,0.00,,---,0.00,0.00,VWS V14.01,2013-09-13 08:11:00,
2013-09-13 03:16:00,75.3,64.8,29.93,NNE,26,2.0,5.0,70,0.00,,---,0.00,0.00,VWS V14.01,2013-09-13 08:16:00,
2013-09-13 03:21:00,75.2,64.8,29.93,NNE,23,2.0,5.0,70,0.00,,---,0.00,0.00,VWS V14.01,2013-09-13 08:21:00,
2013-09-13 03:26:00,75.0,64.6,29.93,NNE,24,3.0,5.0,70,0.00,,---,0.00,0.00,VWS V14.01,2013-09-13 08:26:00,
2013-09-13 03:31:00,74.9,64.5,29.93,NNE,32,1.0,5.0,70,0.00,,---,0.00,0.00,VWS V14.01,2013-09-13 08:31:00,
2013-09-13 03:36:00,74.9,64.9,29.93,NNE,22,1.0,3.0,71,0.00,,---,0.00,0.00,VWS V14.01,2013-09-13 08:36:00,
2013-09-13 03:41:00,74.8,64.8,29.93,NNE,27,2.0,4.0,71,0.00,,---,0.00,0.00,VWS V14.01,2013-09-13 08:41:00,
2013-09-13 03:46:00,74.7,64.7,29.93,NNE,30,1.0,4.0,71,0.00,,---,0.00,0.00,VWS V14.01,2013-09-13 08:46:00,
2013-09-13 03:51:00,74.6,64.6,29.93,NNE,30,1.0,4.0,71,0.00,,---,0.00,0.00,VWS V14.01,2013-09-13 08:51:00,
2013-09-13 03:56:00,74.6,64.6,29.93,NNE,30,2.0,4.0,71,0.00,,---,0.00,0.00,VWS V14.01,2013-09-13 08:56:00,
2013-09-13 04:01:00,74.5,64.9,29.93,NNE,30,3.0,4.0,72,0.00,,---,0.00,0.00,VWS V14.01,2013-09-13 09:01:00,
2013-09-13 04:06:00,74.4,64.8,29.93,NNE,30,2.0,2.0,72,0.00,,---,0.00,0.00,VWS V14.01,2013-09-13 09:06:00,
2013-09-13 04:11:00,74.3,64.7,29.93,NNE,30,2.0,3.0,72,0.00,,---,0.00,0.00,VWS V14.01,2013-09-13 09:11:00,
2013-09-13 04:16:00,74.2,64.6,29.93,NNE,30,2.0,3.0,72,0.00,,---,0.00,0.00,VWS V14.01,2013-09-13 09:16:00,
2013-09-13 04:21:00,74.0,64.4,29.93,NNE,30,2.0,4.0,72,0.00,,---,0.00,0.00,VWS V14.01,2013-09-13 09:21:00,
2013-09-13 04:26:00,73.9,64.3,29.93,NNE,30,2.0,4.0,72,0.00,,---,0.00,0.00,VWS V14.01,2013-09-13 09:26:00,
2013-09-13 04:31:00,73.8,64.6,29.93,NE,43,2.0,4.0,73,0.00,,---,0.00,0.00,VWS V14.01,2013-09-13 09:31:00,
2013-09-13 04:36:00,73.7,64.5,29.93,NE,51,3.0,4.0,73,0.00,,---,0.00,0.00,VWS V14.01,2013-09-13 09:36:00,
2013-09-13 04:41:00,73.7,64.5,29.93,NE,53,3.0,4.0,73,0.00,,---,0.00,0.00,VWS V14.01,2013-09-13 09:41:00,
2013-09-13 04:46:00,73.6,64.8,29.93,NE,46,4.0,4.0,74,0.00,,---,0.00,0.00,VWS V14.01,2013-09-13 09:46:00,
2013-09-13 04:51:00,73.5,64.7,29.93,NE,54,2.0,4.0,74,0.00,,---,0.00,0.00,VWS V14.01,2013-09-13 09:51:00,
2013-09-13 04:56:00,73.5,64.7,29.93,NE,46,3.0,4.0,74,0.00,,---,0.00,0.00,VWS V14.01,2013-09-13 09:56:00,
2013-09-13 05:01:00,73.5,65.1,29.93,NE,52,3.0,4.0,75,0.00,,---,0.00,0.00,VWS V14.01,2013-09-13 10:01:00,
2013-09-13 05:06:00,73.5,65.1,29.93,NE,51,3.0,4.0,75,0.00,,---,0.00,0.00,VWS V14.01,2013-09-13 10:06:00,
2013-09-13 05:11:00,73.5,65.1,29.93,NE,44,3.0,5.0,75,0.00,,---,0.00,0.00,VWS V14.01,2013-09-13 10:11:00,
2013-09-13 05:16:00,73.5,65.1,29.93,NE,51,3.0,5.0,75,0.00,,---,0.00,0.00,VWS V14.01,2013-09-13 10:16:00,
2013-09-13 05:21:00,73.5,65.1,29.93,NE,51,2.0,5.0,75,0.00,,---,0.00,0.00,VWS V14.01,2013-09-13 10:21:00,
2013-09-13 05:26:00,73.4,65.0,29.92,NE,51,2.0,5.0,75,0.00,,---,0.00,0.00,VWS V14.01,2013-09-13 10:26:00,
2013-09-13 05:31:00,73.3,64.9,29.93,NE,51,2.0,5.0,75,0.00,,---,0.00,0.00,VWS V14.01,2013-09-13 10:31:00,
2013-09-13 05:36:00,73.3,64.9,29.93,NE,51,2.0,3.0,75,0.00,,---,0.00,0.00,VWS V14.01,2013-09-13 10:36:00,
2013-09-13 05:41:00,73.2,64.8,29.93,NE,51,2.0,3.0,75,0.00,,---,0.00,0.00,VWS V14.01,2013-09-13 10:41:00,
2013-09-13 05:46:00,73.2,64.8,29.93,NE,51,1.0,3.0,75,0.00,,---,0.00,0.00,VWS V14.01,2013-09-13 10:46:00,
2013-09-13 05:51:00,73.2,65.2,29.93,NE,51,1.0,3.0,76,0.00,,---,0.00,0.00,VWS V14.01,2013-09-13 10:51:00,
2013-09-13 05:56:00,73.2,65.2,29.93,NE,51,1.0,3.0,76,0.00,,---,0.00,0.00,VWS V14.01,2013-09-13 10:56:00,
2013-09-13 06:01:00,73.2,65.2,29.93,NE,51,2.0,3.0,76,0.00,,---,0.00,0.00,VWS V14.01,2013-09-13 11:01:00,
2013-09-13 06:06:00,73.1,65.1,29.93,NE,51,2.0,3.0,76,0.00,,---,0.00,0.00,VWS V14.01,2013-09-13 11:06:00,
2013-09-13 06:11:00,73.0,65.0,29.93,NE,51,2.0,3.0,76,0.00,,---,0.00,0.00,VWS V14.01,2013-09-13 11:11:00,
2013-09-13 09:28:00,77.1,67.0,29.94,ENE,57,7.0,7.0,71,0.00,,---,0.00,185.00,VWS V14.01,2013-09-13 14:28:00,
2013-09-13 09:33:00,77.3,67.2,29.94,NE,50,6.0,13.0,71,0.00,,---,0.00,213.00,VWS V14.01,2013-09-13 14:33:00,
2013-09-13 09:38:00,77.6,67.5,29.94,ENE,72,8.0,10.0,71,0.00,,---,0.00,278.00,VWS V14.01,2013-09-13 14:38:00,
2013-09-13 09:43:00,78.1,67.5,29.94,ENE,57,11.0,11.0,70,0.00,,---,0.00,396.00,VWS V14.01,2013-09-13 14:43:00,
2013-09-13 09:48:00,78.7,68.1,29.94,ENE,61,9.0,14.0,70,0.00,,---,0.00,209.00,VWS V14.01,2013-09-13 14:48:00,
2013-09-13 09:53:00,79.0,68.0,29.94,ENE,70,7.0,14.0,69,0.00,,---,0.00,350.00,VWS V14.01,2013-09-13 14:53:00,
2013-09-13 09:58:00,78.8,67.8,29.94,NE,41,5.0,14.0,69,0.00,,---,0.00,448.00,VWS V14.01,2013-09-13 14:58:00,
2013-09-13 10:03:00,79.1,68.1,29.95,East,80,8.0,14.0,69,0.00,,---,0.00,390.00,VWS V14.01,2013-09-13 15:03:00,
2013-09-13 10:08:00,79.3,67.8,29.95,NNE,20,4.0,10.0,68,0.00,,---,0.00,313.00,VWS V14.01,2013-09-13 15:08:00,
2013-09-13 10:13:00,79.4,67.9,29.95,NE,39,7.0,12.0,68,0.00,,---,0.00,272.00,VWS V14.01,2013-09-13 15:13:00,
2013-09-13 10:18:00,79.4,67.9,29.95,NE,50,6.0,12.0,68,0.00,,---,0.00,264.00,VWS V14.01,2013-09-13 15:18:00,
2013-09-13 10:23:00,79.6,68.1,29.95,NE,38,8.0,12.0,68,0.00,,---,0.00,524.00,VWS V14.01,2013-09-13 15:23:00,
2013-09-13 10:28:00,80.0,68.5,29.95,ENE,72,10.0,12.0,68,0.00,,---,0.00,605.00,VWS V14.01,2013-09-13 15:28:00,
2013-09-13 10:33:00,80.5,68.5,29.95,East,92,8.0,13.0,67,0.00,,---,0.00,548.00,VWS V14.01,2013-09-13 15:33:00,
2013-09-13 10:38:00,80.7,68.3,29.95,NE,55,7.0,12.0,66,0.00,,---,0.00,619.00,VWS V14.01,2013-09-13 15:38:00,
2013-09-13 10:56:00,81.4,68.5,29.95,ENE,59,4.0,4.0,65,0.00,,---,0.00,302.00,VWS V14.01,2013-09-13 15:56:00,
2013-09-13 11:01:00,81.8,68.9,29.94,East,88,9.0,9.0,65,0.00,,---,0.00,645.00,VWS V14.01,2013-09-13 16:01:00,
2013-09-13 11:06:00,82.3,68.9,29.94,East,97,7.0,10.0,64,0.00,,---,0.00,236.00,VWS V14.01,2013-09-13 16:06:00,
2013-09-13 11:11:00,81.8,68.4,29.94,East,98,8.0,11.0,64,0.00,,---,0.00,183.00,VWS V14.01,2013-09-13 16:11:00,
2013-09-13 11:16:00,81.5,68.6,29.94,East,94,10.0,11.0,65,0.00,,---,0.00,185.00,VWS V14.01,2013-09-13 16:16:00,
2013-09-13 11:21:00,81.0,68.1,29.94,SE,127,4.0,12.0,65,0.00,,---,0.00,236.00,VWS V14.01,2013-09-13 16:21:00,
2013-09-13 11:26:00,80.8,68.4,29.94,ENE,63,5.0,12.0,66,0.00,,---,0.00,244.00,VWS V14.01,2013-09-13 16:26:00,
2013-09-13 11:31:00,80.7,68.3,29.94,ESE,112,5.0,12.0,66,0.00,,---,0.00,209.00,VWS V14.01,2013-09-13 16:31:00,
2013-09-13 11:36:00,80.6,68.2,29.94,East,83,6.0,7.0,66,0.00,,---,0.00,186.00,VWS V14.01,2013-09-13 16:36:00,
2013-09-13 11:41:00,80.5,68.1,29.94,ESE,105,7.0,11.0,66,0.00,,---,0.00,195.00,VWS V14.01,2013-09-13 16:41:00,
2013-09-13 11:46:00,80.4,68.0,29.94,East,98,7.0,11.0,66,0.00,,---,0.00,204.00,VWS V14.01,2013-09-13 16:46:00,
2013-09-13 11:51:00,80.5,68.1,29.94,East,92,5.0,11.0,66,0.00,,---,0.00,236.00,VWS V14.01,2013-09-13 16:51:00,
2013-09-13 11:56:00,80.6,68.2,29.94,East,101,7.0,11.0,66,0.00,,---,0.00,213.00,VWS V14.01,2013-09-13 16:56:00,
2013-09-13 12:01:00,80.5,68.5,29.94,East,86,9.0,11.0,67,0.00,,---,0.00,209.00,VWS V14.01,2013-09-13 17:01:00,
2013-09-13 12:06:00,80.7,68.7,29.93,ENE,78,7.0,11.0,67,0.00,,---,0.00,229.00,VWS V14.01,2013-09-13 17:06:00,
2013-09-13 12:11:00,80.9,68.9,29.93,NE,38,3.0,11.0,67,0.00,,---,0.00,258.00,VWS V14.01,2013-09-13 17:11:00,
2013-09-13 12:16:00,81.3,69.3,29.93,SE,132,1.0,11.0,67,0.00,,---,0.00,269.00,VWS V14.01,2013-09-13 17:16:00,
2013-09-13 12:21:00,81.2,68.8,29.93,East,83,6.0,13.0,66,0.00,,---,0.00,264.00,VWS V14.01,2013-09-13 17:21:00,
2013-09-13 12:26:00,81.0,68.6,29.93,East,92,7.0,13.0,66,0.00,,---,0.00,283.00,VWS V14.01,2013-09-13 17:26:00,
2013-09-13 12:31:00,80.7,68.7,29.92,ENE,70,5.0,13.0,67,0.00,,---,0.00,287.00,VWS V14.01,2013-09-13 17:31:00,
2013-09-13 12:36:00,80.9,68.9,29.93,NE,49,3.0,8.0,67,0.00,,---,0.00,281.00,VWS V14.01,2013-09-13 17:36:00,
2013-09-13 12:41:00,80.9,68.9,29.92,East,88,6.0,9.0,67,0.00,,---,0.00,276.00,VWS V14.01,2013-09-13 17:41:00,
2013-09-13 12:46:00,81.0,69.0,29.92,ENE,62,4.0,9.0,67,0.00,,---,0.00,281.00,VWS V14.01,2013-09-13 17:46:00,
2013-09-13 12:51:00,81.3,68.9,29.92,NE,40,5.0,10.0,66,0.00,,---,0.00,278.00,VWS V14.01,2013-09-13 17:51:00,
2013-09-13 12:56:00,81.3,69.3,29.92,NE,50,5.0,10.0,67,0.00,,---,0.00,269.00,VWS V14.01,2013-09-13 17:56:00,
2013-09-13 13:01:00,81.2,69.2,29.91,ENE,77,4.0,10.0,67,0.00,,---,0.00,267.00,VWS V14.01,2013-09-13 18:01:00,
2013-09-13 13:06:00,81.1,69.6,29.91,ENE,71,4.0,9.0,68,0.00,,---,0.00,283.00,VWS V14.01,2013-09-13 18:06:00,
2013-09-13 13:11:00,81.2,69.6,29.91,East,85,8.0,9.0,68,0.00,,---,0.00,287.00,VWS V14.01,2013-09-13 18:11:00,
2013-09-13 13:16:00,81.4,69.4,29.91,ENE,70,4.0,9.0,67,0.00,,---,0.00,281.00,VWS V14.01,2013-09-13 18:16:00,
2013-09-13 13:21:00,81.5,69.1,29.90,East,82,6.0,10.0,66,0.00,,---,0.00,290.00,VWS V14.01,2013-09-13 18:21:00,
2013-09-13 13:26:00,81.5,69.1,29.90,NE,41,5.0,10.0,66,0.00,,---,0.00,279.00,VWS V14.01,2013-09-13 18:26:00,
2013-09-13 13:31:00,81.6,69.6,29.90,ESE,111,5.0,10.0,67,0.00,,---,0.00,297.00,VWS V14.01,2013-09-13 18:31:00,
2013-09-13 13:36:00,81.9,69.4,29.90,East,90,6.0,8.0,66,0.00,,---,0.00,323.00,VWS V14.01,2013-09-13 18:36:00,
2013-09-13 13:41:00,82.2,68.8,29.90,ESE,109,8.0,9.0,64,0.00,,---,0.00,443.00,VWS V14.01,2013-09-13 18:41:00,
2013-09-13 13:46:00,82.3,68.0,29.89,NE,49,6.0,11.0,62,0.00,,---,0.00,499.00,VWS V14.01,2013-09-13 18:46:00,
2013-09-13 13:51:00,82.9,68.6,29.89,ESE,104,5.0,11.0,62,0.00,,---,0.00,657.00,VWS V14.01,2013-09-13 18:51:00,
2013-09-13 13:56:00,84.0,68.6,29.89,SE,145,2.0,11.0,60,0.00,,---,0.00,527.00,VWS V14.01,2013-09-13 18:56:00,
2013-09-13 14:01:00,84.6,68.2,29.88,East,90,8.0,11.0,58,0.00,,---,0.00,494.00,VWS V14.01,2013-09-13 19:01:00,
2013-09-13 14:06:00,84.9,66.9,29.88,ESE,109,4.0,9.0,55,0.00,,---,0.00,471.00,VWS V14.01,2013-09-13 19:06:00,
2013-09-13 14:11:00,85.4,66.9,29.88,ESE,110,1.0,9.0,54,0.00,,---,0.00,462.00,VWS V14.01,2013-09-13 19:11:00,
2013-09-13 14:16:00,85.7,67.2,29.87,East,96,3.0,10.0,54,0.00,,---,0.00,480.00,VWS V14.01,2013-09-13 19:16:00,
2013-09-13 14:21:00,86.0,67.4,29.87,South,173,3.0,10.0,54,0.00,,---,0.00,413.00,VWS V14.01,2013-09-13 19:21:00,
2013-09-13 14:26:00,86.5,67.9,29.86,East,97,7.0,10.0,54,0.00,,---,0.00,429.00,VWS V14.01,2013-09-13 19:26:00,
2013-09-13 14:31:00,86.6,67.4,29.86,SSE,163,1.0,10.0,53,0.00,,---,0.00,468.00,VWS V14.01,2013-09-13 19:31:00,
2013-09-13 14:36:00,87.4,68.7,29.86,ESE,123,7.0,8.0,54,0.00,,---,0.00,543.00,VWS V14.01,2013-09-13 19:36:00,
2013-09-13 14:41:00,87.6,68.4,29.85,SSE,155,3.0,8.0,53,0.00,,---,0.00,427.00,VWS V14.01,2013-09-13 19:41:00,
2013-09-13 14:46:00,87.8,67.4,29.85,East,89,8.0,9.0,51,0.00,,---,0.00,462.00,VWS V14.01,2013-09-13 19:46:00,
2013-09-13 14:51:00,87.4,67.6,29.85,ENE,71,7.0,10.0,52,0.00,,---,0.00,596.00,VWS V14.01,2013-09-13 19:51:00,
2013-09-13 14:56:00,87.6,67.2,29.85,SSE,153,1.0,10.0,51,0.00,,---,0.00,415.00,VWS V14.01,2013-09-13 19:56:00,
2013-09-13 15:01:00,88.0,67.6,29.85,East,86,5.0,10.0,51,0.00,,---,0.00,461.00,VWS V14.01,2013-09-13 20:01:00,
2013-09-13 15:06:00,87.9,67.5,29.84,East,83,9.0,11.0,51,0.00,,---,0.00,388.00,VWS V14.01,2013-09-13 20:06:00,
2013-09-13 15:11:00,87.6,67.2,29.84,ENE,73,3.0,11.0,51,0.00,,---,0.00,459.00,VWS V14.01,2013-09-13 20:11:00,
2013-09-13 15:16:00,87.7,66.8,29.84,East,84,6.0,11.0,50,0.00,,---,0.00,353.00,VWS V14.01,2013-09-13 20:16:00,
2013-09-13 15:21:00,87.5,67.2,29.84,ENE,78,5.0,11.0,51,0.00,,---,0.00,366.00,VWS V14.01,2013-09-13 20:21:00,
2013-09-13 15:26:00,87.3,67.0,29.84,NNE,21,8.0,11.0,51,0.00,,---,0.00,445.00,VWS V14.01,2013-09-13 20:26:00,
2013-09-13 15:31:00,87.7,67.3,29.83,NE,54,4.0,11.0,51,0.00,,---,0.00,686.00,VWS V14.01,2013-09-13 20:31:00,
2013-09-13 15:36:00,88.3,69.0,29.83,ENE,65,12.0,15.0,53,0.00,,---,0.00,742.00,VWS V14.01,2013-09-13 20:36:00,
2013-09-13 15:41:00,88.3,67.9,29.83,NNE,22,6.0,15.0,51,0.00,,---,0.00,701.00,VWS V14.01,2013-09-13 20:41:00,
2013-09-13 15:46:00,88.5,67.5,29.82,NNE,22,5.0,15.0,50,0.00,,---,0.00,701.00,VWS V14.01,2013-09-13 20:46:00,
2013-09-13 15:51:00,88.6,66.4,29.82,NNE,26,8.0,15.0,48,0.00,,---,0.00,698.00,VWS V14.01,2013-09-13 20:51:00,
2013-09-13 15:56:00,88.6,68.7,29.82,ENE,69,10.0,16.0,52,0.00,,---,0.00,696.00,VWS V14.01,2013-09-13 20:56:00,
2013-09-13 16:01:00,88.5,68.1,29.82,NNE,26,8.0,16.0,51,0.00,,---,0.00,650.00,VWS V14.01,2013-09-13 21:01:00,
2013-09-13 16:06:00,88.5,68.1,29.82,East,82,3.0,9.0,51,0.00,,---,0.00,715.00,VWS V14.01,2013-09-13 21:06:00,
2013-09-13 16:11:00,88.9,67.9,29.82,ESE,103,5.0,14.0,50,0.00,,---,0.00,703.00,VWS V14.01,2013-09-13 21:11:00,
2013-09-13 16:16:00,88.7,68.3,29.82,NE,44,8.0,16.0,51,0.00,,---,0.00,708.00,VWS V14.01,2013-09-13 21:16:00,
2013-09-13 16:21:00,88.4,68.0,29.82,NNW,334,9.0,18.0,51,0.00,,---,0.00,650.00,VWS V14.01,2013-09-13 21:21:00,
2013-09-13 16:26:00,88.2,68.4,29.82,NNE,33,6.0,18.0,52,0.00,,---,0.00,608.00,VWS V14.01,2013-09-13 21:26:00,
2013-09-13 16:31:00,88.3,67.9,29.82,ENE,62,5.0,18.0,51,0.00,,---,0.00,577.00,VWS V14.01,2013-09-13 21:31:00,
2013-09-13 16:36:00,87.8,68.0,29.83,NNE,30,14.0,17.0,52,0.00,,---,0.00,580.00,VWS V14.01,2013-09-13 21:36:00,
2013-09-13 16:41:00,87.1,67.9,29.83,NE,40,8.0,17.0,53,0.00,,---,0.00,552.00,VWS V14.01,2013-09-13 21:41:00,
2013-09-13 16:46:00,86.9,67.7,29.84,ENE,69,8.0,19.0,53,0.00,,---,0.00,621.00,VWS V14.01,2013-09-13 21:46:00,
2013-09-13 16:51:00,87.0,67.8,29.84,NE,36,10.0,22.0,53,0.00,,---,0.00,207.00,VWS V14.01,2013-09-13 21:51:00,
2013-09-13 16:56:00,85.9,66.8,29.84,NE,52,23.0,23.0,53,0.00,,---,0.00,155.00,VWS V14.01,2013-09-13 21:56:00,
2013-09-13 17:01:00,85.2,66.2,29.84,NE,49,16.0,23.0,53,0.00,,---,0.00,195.00,VWS V14.01,2013-09-13 22:01:00,
2013-09-13 17:06:00,84.8,67.4,29.84,ENE,59,13.0,23.0,56,0.00,,---,0.00,244.00,VWS V14.01,2013-09-13 22:06:00,
2013-09-13 17:11:00,84.2,67.8,29.84,ENE,59,13.0,25.0,58,0.00,,---,0.00,200.00,VWS V14.01,2013-09-13 22:11:00,
2013-09-13 17:16:00,83.5,67.7,29.84,NE,45,13.0,25.0,59,0.00,,---,0.00,137.00,VWS V14.01,2013-09-13 22:16:00,
2013-09-13 17:21:00,82.9,67.6,29.84,NE,43,8.0,25.0,60,0.00,,---,0.00,105.00,VWS V14.01,2013-09-13 22:21:00,
2013-09-13 17:26:00,82.2,67.9,29.84,ENE,57,10.0,25.0,62,0.00,,---,0.00,120.00,VWS V14.01,2013-09-13 22:26:00,
2013-09-13 17:31:00,81.3,67.5,29.84,ENE,59,8.0,25.0,63,0.00,,---,0.00,135.00,VWS V14.01,2013-09-13 22:31:00,
2013-09-13 17:36:00,80.6,67.8,29.84,East,82,9.0,13.0,65,0.00,,---,0.00,102.00,VWS V14.01,2013-09-13 22:36:00,
2013-09-13 17:41:00,80.1,67.3,29.83,NNE,31,10.0,15.0,65,0.00,,---,0.00,88.00,VWS V14.01,2013-09-13 22:41:00,
2013-09-13 17:46:00,80.0,67.2,29.83,ENE,59,12.0,18.0,65,0.00,,---,0.00,70.00,VWS V14.01,2013-09-13 22:46:00,
2013-09-13 17:51:00,79.6,67.2,29.83,NE,45,11.0,18.0,66,0.00,,---,0.00,60.00,VWS V14.01,2013-09-13 22:51:00,
2013-09-13 17:56:00,79.3,67.0,29.83,NE,50,8.0,18.0,66,0.00,,---,0.00,53.00,VWS V14.01,2013-09-13 22:56:00,
2013-09-13 18:01:00,79.3,66.5,29.83,ENE,59,10.0,18.0,65,0.00,,---,0.00,53.00,VWS V14.01,2013-09-13 23:01:00,
2013-09-13 18:06:00,79.2,66.4,29.83,NE,51,7.0,9.0,65,0.00,,---,0.00,56.00,VWS V14.01,2013-09-13 23:06:00,
2013-09-13 18:11:00,79.3,66.5,29.83,ENE,69,4.0,11.0,65,0.00,,---,0.00,56.00,VWS V14.01,2013-09-13 23:11:00,
2013-09-13 18:16:00,79.4,66.6,29.83,ENE,74,5.0,11.0,65,0.00,,---,0.00,58.00,VWS V14.01,2013-09-13 23:16:00,
2013-09-13 18:21:00,79.7,66.5,29.84,East,82,6.0,11.0,64,0.00,,---,0.00,62.00,VWS V14.01,2013-09-13 23:21:00,
2013-09-13 18:26:00,80.0,66.3,29.84,ESE,119,7.0,14.0,63,0.00,,---,0.00,56.00,VWS V14.01,2013-09-13 23:26:00,
2013-09-13 18:31:00,80.2,66.0,29.84,ENE,76,13.0,14.0,62,0.00,,---,0.00,56.00,VWS V14.01,2013-09-13 23:31:00,
2013-09-13 18:36:00,80.2,66.5,29.84,NE,53,10.0,13.0,63,0.00,,---,0.00,51.00,VWS V14.01,2013-09-13 23:36:00,
2013-09-13 18:41:00,80.1,66.4,29.84,ENE,75,11.0,13.0,63,0.00,,---,0.00,47.00,VWS V14.01,2013-09-13 23:41:00,
2013-09-13 18:46:00,80.0,66.3,29.84,ENE,69,7.0,13.0,63,0.00,,---,0.00,44.00,VWS V14.01,2013-09-13 23:46:00,
2013-09-13 18:51:00,80.0,66.3,29.84,East,98,5.0,13.0,63,0.00,,---,0.00,62.00,VWS V14.01,2013-09-13 23:51:00,
2013-09-13 18:56:00,80.2,66.0,29.84,ENE,74,4.0,13.0,62,0.00,,---,0.00,65.00,VWS V14.01,2013-09-13 23:56:00,
2013-09-13 19:01:00,80.4,66.2,29.84,ENE,62,3.0,13.0,62,0.00,,---,0.00,70.00,VWS V14.01,2013-09-14 00:01:00,
2013-09-13 19:06:00,80.8,65.2,29.84,ENE,68,10.0,10.0,59,0.00,,---,0.00,69.00,VWS V14.01,2013-09-14 00:06:00,
2013-09-13 19:11:00,81.1,64.9,29.85,ENE,58,8.0,14.0,58,0.00,,---,0.00,53.00,VWS V14.01,2013-09-14 00:11:00,
2013-09-13 19:16:00,81.2,64.5,29.85,East,80,13.0,14.0,57,0.00,,---,0.00,42.00,VWS V14.01,2013-09-14 00:16:00,
2013-09-13 19:21:00,81.1,65.4,29.85,ENE,72,8.0,15.0,59,0.00,,---,0.00,23.00,VWS V14.01,2013-09-14 00:21:00,
2013-09-13 19:26:00,80.6,65.4,29.85,ENE,61,13.0,15.0,60,0.00,,---,0.00,16.00,VWS V14.01,2013-09-14 00:26:00,
2013-09-13 19:31:00,80.1,65.4,29.85,ENE,58,4.0,15.0,61,0.00,,---,0.00,11.00,VWS V14.01,2013-09-14 00:31:00,
2013-09-13 19:36:00,79.7,65.5,29.85,East,81,9.0,16.0,62,0.00,,---,0.00,5.00,VWS V14.01,2013-09-14 00:36:00,
2013-09-13 19:41:00,79.3,65.2,29.85,East,90,10.0,16.0,62,0.00,,---,0.00,0.00,VWS V14.01,2013-09-14 00:41:00,
2013-09-13 19:46:00,78.7,64.6,29.85,ENE,67,7.0,17.0,62,0.00,,---,0.00,0.00,VWS V14.01,2013-09-14 00:46:00,
2013-09-13 19:51:00,78.1,64.5,29.85,NE,54,4.0,17.0,63,0.00,,---,0.00,0.00,VWS V14.01,2013-09-14 00:51:00,
2013-09-13 19:56:00,77.6,64.5,29.86,NE,35,8.0,17.0,64,0.00,,---,0.00,0.00,VWS V14.01,2013-09-14 00:56:00,
2013-09-13 20:01:00,77.4,64.7,29.86,NNE,33,9.0,17.0,65,0.00,,---,0.00,0.00,VWS V14.01,2013-09-14 01:01:00,